[[{"header":{"parameterUnit":"m.s-1","parameterCategory":1,"la1":30.2991,"la2":30.254,"lo1":-89.0895,"lo2":-89.0444,"dy":0.0017,"dx":0.0017,"nx":28,"ny":28,"refTime":"2026-01-08T03:00:00:Z","depth":0,"parameterNumber":2,"parameterNumberName":"U-component_of_WINDS"},"data":[0,0,0,0,0,0,0,0,0,0,0,0,0,0,0,0,0,0,0,0,0,0,0,0,0,0,0,0,0,0,0,0,0,0,0,0,0,0,0,0,0,0,0,0,0,0,0,0,0,0,0,0,0,0,0,0,0,0,-1.8036,-1.8036,0,-1.806,-1.806,-1.8061,-1.805,-1.8049,-1.8049,-1.8048,-1.8075,-1.8077,-1.8078,0,0,0,0,0,0,0,0,0,0,0,0,0,-1.7984,-1.7985,-1.8036,-1.8036,-1.8037,-1.806,-1.806,-1.8061,-1.805,-1.8049,-1.8049,-1.8048,-1.8075,-1.8076,-1.8078,0,0,0,0,0,0,0,0,0,0,0,0,0,-1.8007,-1.7986,-1.8036,-1.8034,-1.8034,-1.806,-1.806,-1.8061,-1.805,-1.8049,-1.8049,-1.8048,-1.8074,-1.8076,-1.8078,-1.8108,0,0,-1.8084,-1.8085,0,0,0,0,0,0,0,0,-1.8006,-1.8009,-1.8034,-1.8034,-1.8034,-1.8051,-1.8052,-1.8077,-1.8051,-1.8044,-1.8048,-1.8047,-1.8068,-1.807,-1.8077,-1.8109,-1.811,-1.8084,-1.8085,-1.8086,-1.8087,0,0,0,0,0,0,0,-1.8005,-1.8008,-1.8046,-1.8035,-1.8035,-1.8033,-1.8035,-1.8057,-1.8061,-1.8045,-1.8044,-1.8047,-1.8068,-1.8075,-1.8078,-1.8111,-1.8084,-1.8086,-1.8087,-1.8088,-1.8169,-1.817,0,0,0,0,0,0,-1.8003,-1.8007,-1.8045,-1.8046,-1.8018,-1.8035,-1.8037,-1.8047,-1.8061,-1.8062,-1.8048,-1.8046,-1.8072,-1.8075,-1.8078,-1.8114,-1.8086,-1.8088,-1.8089,-1.8168,-1.8169,-1.817,0,0,0,0,0,0,-1.8001,-1.8006,-1.8044,-1.8026,-1.8031,-1.8037,-1.8047,-1.8048,-1.8055,-1.8063,-1.8064,-1.8054,-1.8072,-1.8076,-1.81,-1.8115,-1.8089,-1.809,-1.8167,-1.8168,-1.817,-1.8185,0,0,0,0,0,0,-1.8,-1.8006,-1.8016,-1.8027,-1.8032,-1.8065,-1.8048,-1.8049,-1.8058,-1.8056,-1.8069,-1.807,-1.8071,-1.8098,-1.8102,-1.8117,-1.8092,-1.8165,-1.8167,-1.8169,-1.8183,-1.8187,-1.819,0,0,0,0,0,-1.7998,-1.802,-1.8017,-1.8021,-1.8045,-1.8065,-1.8069,-1.8069,-1.8059,-1.807,-1.8075,-1.807,-1.8113,-1.81,-1.8105,-1.8121,-1.8164,-1.8167,-1.8169,-1.8182,-1.8186,-1.819,0,0,0,0,0,0,-1.8012,-1.8021,-1.8018,-1.8044,-1.8054,-1.8063,-1.8077,-1.8073,-1.8087,-1.8085,-1.8086,-1.8089,-1.8114,-1.812,-1.8106,-1.8151,-1.8137,-1.8141,-1.8145,-1.815,-1.8153,-1.815,-1.8094,0,0,0,0,0,-1.8018,-1.8032,-1.804,-1.8062,-1.8068,-1.8072,-1.8081,-1.808,-1.8091,-1.8095,-1.8102,-1.8114,-1.813,-1.814,-1.8155,-1.8185,-1.8188,-1.8198,-1.8201,-1.8204,-1.8207,-1.8223,-1.8228,-1.8178,-1.8177,-1.8177,0,0,-1.803,-1.8037,-1.8046,-1.8065,-1.8073,-1.8089,-1.8075,-1.8093,-1.8105,-1.8098,-1.8121,-1.8127,-1.814,-1.8167,-1.818,-1.8173,-1.8221,-1.8207,-1.8209,-1.821,-1.8226,-1.823,-1.8235,-1.8179,-1.8179,-1.8179,0,0,-1.806,-1.8067,-1.8086,-1.8094,-1.8106,-1.8109,-1.8113,-1.8124,-1.8128,-1.8151,-1.8146,-1.8161,-1.8189,-1.8198,-1.8207,-1.8242,-1.8238,-1.8247,-1.8264,-1.828,-1.8284,-1.8288,-1.83,-1.8304,-1.825,-1.825,-1.825,0,-1.8074,-1.8097,-1.8097,-1.8114,-1.8123,-1.8117,-1.8137,-1.8145,-1.8162,-1.8168,-1.8161,-1.8196,-1.8204,-1.8233,-1.8242,-1.8249,-1.8255,-1.8245,-1.8283,-1.8287,-1.829,-1.8302,-1.8307,-1.8251,-1.8251,-1.8251,-1.8251,0,-1.8114,-1.813,-1.8144,-1.8159,-1.817,-1.8188,-1.8192,-1.8203,-1.8202,-1.8206,-1.823,-1.824,-1.8257,-1.8265,-1.8264,-1.8294,-1.829,-1.8283,-1.8269,-1.8296,-1.8307,-1.8312,-1.8253,-1.8252,-1.8252,-1.8252,0,0,-1.8152,-1.8167,-1.8172,-1.8179,-1.8192,-1.8205,-1.8224,-1.824,-1.825,-1.8262,-1.8278,-1.8302,-1.8296,-1.8306,-1.8306,-1.832,-1.8348,-1.8312,-1.8312,-1.8318,-1.8381,-1.8385,-1.839,-1.8345,-1.8346,-1.8347,-1.838,0,-1.8183,-1.8215,-1.8215,-1.8245,-1.826,-1.8256,-1.8272,-1.8283,-1.8287,-1.8302,-1.8308,-1.8324,-1.8315,-1.8321,-1.8335,-1.8341,-1.836,-1.8339,-1.8361,-1.8361,-1.8356,-1.8396,-1.8401,-1.8431,-1.8384,-1.8385,-1.8386,0,-1.8223,-1.8235,-1.8266,-1.8277,-1.8283,-1.8298,-1.8313,-1.8327,-1.8339,-1.8342,-1.8353,-1.8352,-1.8372,-1.8359,-1.8388,-1.8373,-1.8383,-1.8387,-1.8389,-1.839,-1.8374,-1.8398,-1.8441,-1.8445,-1.8392,-1.8392,-1.8391,0,-1.8247,-1.8271,-1.8293,-1.8299,-1.8313,-1.8323,-1.833,-1.8341,-1.8351,-1.8365,-1.8371,-1.8388,-1.8397,-1.841,-1.8414,-1.8404,-1.8442,-1.8429,-1.8445,-1.8445,-1.8452,-1.8452,-1.8497,-1.846,-1.846,-1.846,-1.846,0,-1.828,-1.8299,-1.8304,-1.8317,-1.8338,-1.834,-1.8362,-1.8368,-1.8378,-1.8393,-1.8391,-1.8405,-1.841,-1.8425,-1.8429,-1.8452,-1.8456,-1.8459,-1.846,-1.8459,-1.8458,-1.8464,-1.8462,-1.8461,-1.8461,-1.8461,-1.8461,0,-1.831,-1.8314,-1.8337,-1.8348,-1.8352,-1.8367,-1.8377,-1.839,-1.8395,-1.8414,-1.8419,-1.8426,-1.8445,-1.845,-1.8472,-1.8475,-1.8502,-1.8501,-1.8497,-1.8497,-1.8512,-1.851,-1.8562,-1.8568,-1.8528,-1.8528,-1.8529,0,-1.8331,-1.8345,-1.8358,-1.8367,-1.8374,-1.8389,-1.8399,-1.8402,-1.8412,-1.8428,-1.8439,-1.8457,-1.8471,-1.8501,-1.8509,-1.8527,-1.8526,-1.8543,-1.8528,-1.8527,-1.8525,-1.8524,-1.8525,-1.8545,-1.8545,-1.8546,-1.8546,0,-1.8367,-1.8368,-1.8382,-1.8397,-1.8408,-1.842,-1.8432,-1.844,-1.8444,-1.8457,-1.8475,-1.8486,-1.8508,-1.8526,-1.8544,-1.8552,-1.855,-1.8551,-1.8555,-1.8554,-1.855,-1.8552,-1.8503,-1.8549,-1.8549,-1.8548,-1.8548,-1.8548,-1.8393,-1.8405,-1.8416,-1.8431,-1.844,-1.8451,-1.8464,-1.847,-1.8485,-1.8502,-1.8504,-1.8524,-1.8537,-1.856,-1.8569,-1.8585,-1.858,-1.8587,-1.8588,-1.859,-1.8591,-1.8549,-1.8589,-1.8588,-1.8588,-1.8588,-1.8588,0,-1.8428,-1.8435,-1.8449,-1.8465,-1.8477,-1.8474,-1.8487,-1.8497,-1.8514,-1.8526,-1.854,-1.8562,-1.8579,-1.8589,-1.8607,-1.8618,-1.8618,-1.8623,-1.8621,-1.8623,-1.8594,-1.8588,-1.8623,-1.8623,-1.8623,-1.8623,-1.8623,-1.8623,-1.8448,-1.8469,-1.8471,-1.8497,-1.8504,-1.8522,-1.853,-1.854,-1.855,-1.8573,-1.8587,-1.8593,-1.8605,-1.8624,-1.864,-1.8643,-1.8649,-1.8654,-1.8656,-1.8629,-1.8625,-1.8622,-1.8616,-1.8656,-1.8656,-1.8684,-1.8684,-1.8685]},{"header":{"parameterUnit":"m.s-1","parameterCategory":1,"la1":30.2991,"la2":30.254,"lo1":-89.0895,"lo2":-89.0444,"dy":0.0017,"dx":0.0017,"nx":28,"ny":28,"refTime":"2026-01-08T03:00:00:Z","depth":0,"parameterNumber":3,"parameterNumberName":"V-component_of_WINDS"},"data":[0,0,0,0,0,0,0,0,0,0,0,0,0,0,0,0,0,0,0,0,0,0,0,0,0,0,0,0,0,0,0,0,0,0,0,0,0,0,0,0,0,0,0,0,0,0,0,0,0,0,0,0,0,0,0,0,0,0,2.7958,2.7958,0,2.8002,2.8003,2.8003,2.801,2.801,2.8009,2.8009,2.8056,2.8058,2.8059,0,0,0,0,0,0,0,0,0,0,0,0,0,2.7883,2.7884,2.7958,2.7958,2.7959,2.8002,2.8003,2.8003,2.801,2.801,2.8009,2.8009,2.8055,2.8057,2.8059,0,0,0,0,0,0,0,0,0,0,0,0,0,2.792,2.7885,2.7958,2.7967,2.7969,2.8002,2.8003,2.8003,2.801,2.801,2.8009,2.8008,2.8055,2.8057,2.806,2.8087,0,0,2.8067,2.8068,0,0,0,0,0,0,0,0,2.7918,2.7923,2.7965,2.7967,2.7968,2.8,2.7994,2.8031,2.801,2.7994,2.8009,2.8008,2.8038,2.8042,2.8051,2.8089,2.8091,2.8067,2.8069,2.807,2.807,0,0,0,0,0,0,0,2.7915,2.7921,2.7975,2.7966,2.7968,2.7971,2.7976,2.8001,2.8019,2.7996,2.7996,2.8001,2.8039,2.8049,2.8053,2.8092,2.8067,2.8069,2.8071,2.8072,2.8158,2.8159,0,0,0,0,0,0,2.7911,2.7919,2.7974,2.7977,2.7941,2.7973,2.7978,2.799,2.8019,2.8023,2.8002,2.8002,2.8045,2.805,2.8054,2.809,2.807,2.8072,2.8073,2.8157,2.8158,2.8159,0,0,0,0,0,0,2.7909,2.7916,2.7972,2.7948,2.7955,2.7975,2.7989,2.7992,2.8002,2.8023,2.8027,2.8009,2.8045,2.8051,2.8079,2.8092,2.8073,2.8075,2.8156,2.8157,2.8158,2.8161,0,0,0,0,0,0,2.7907,2.7915,2.7924,2.7948,2.7957,2.7995,2.7989,2.7993,2.8006,2.8006,2.8031,2.8035,2.8045,2.8076,2.8082,2.8095,2.8077,2.8155,2.8157,2.8158,2.816,2.8163,2.8165,0,0,0,0,0,2.7904,2.7923,2.7925,2.7931,2.7969,2.7996,2.8001,2.8012,2.8007,2.8017,2.8032,2.8034,2.809,2.8078,2.8085,2.81,2.8154,2.8156,2.8158,2.8159,2.8162,2.8164,0,0,0,0,0,0,2.7899,2.7926,2.7928,2.7955,2.7973,2.7997,2.801,2.8014,2.8034,2.8033,2.8047,2.8052,2.8081,2.8093,2.808,2.8129,2.8122,2.8125,2.812,2.8123,2.8125,2.8122,2.8079,0,0,0,0,0,2.7902,2.7921,2.7943,2.7965,2.7974,2.7991,2.8003,2.801,2.8029,2.8037,2.8054,2.8073,2.8096,2.811,2.8131,2.8162,2.8169,2.8176,2.8178,2.8179,2.8182,2.8203,2.8207,2.8165,2.8165,2.8165,0,0,2.7906,2.7923,2.7934,2.7964,2.7979,2.8,2.7997,2.8018,2.8035,2.8041,2.8069,2.8082,2.8105,2.8136,2.815,2.8147,2.8196,2.8182,2.8183,2.8185,2.8205,2.8209,2.8213,2.8166,2.8166,2.8166,0,0,2.7925,2.7939,2.796,2.7975,2.7998,2.801,2.8015,2.8039,2.8048,2.8077,2.8083,2.8103,2.814,2.8158,2.8171,2.8201,2.8205,2.8208,2.8219,2.8239,2.8242,2.8245,2.8259,2.8263,2.821,2.821,2.821,0,2.7928,2.7959,2.797,2.7992,2.8007,2.8014,2.8036,2.8051,2.808,2.8091,2.8087,2.8136,2.8152,2.8188,2.8196,2.8206,2.8214,2.8205,2.8241,2.8244,2.8247,2.826,2.8264,2.8211,2.8211,2.8211,2.8211,0,2.7962,2.7984,2.7998,2.8027,2.8043,2.8065,2.8082,2.8097,2.8104,2.8116,2.8148,2.8167,2.8194,2.8203,2.8209,2.8242,2.8239,2.8238,2.8231,2.8251,2.8264,2.8268,2.8211,2.8211,2.8211,2.8211,0,0,2.7978,2.8015,2.802,2.8035,2.8062,2.808,2.8104,2.813,2.8144,2.8165,2.8187,2.822,2.822,2.8236,2.8244,2.8261,2.8288,2.8258,2.8259,2.8265,2.8328,2.833,2.8335,2.829,2.8291,2.8292,2.8327,0,2.8002,2.8044,2.8056,2.8093,2.8115,2.8123,2.8145,2.8165,2.8178,2.82,2.8215,2.824,2.8236,2.8246,2.8264,2.828,2.8301,2.8278,2.8313,2.8314,2.8308,2.8341,2.8343,2.8375,2.8331,2.8332,2.8333,0,2.8034,2.8057,2.8095,2.8123,2.8133,2.8152,2.8179,2.8199,2.8224,2.8232,2.8252,2.826,2.8288,2.8279,2.8319,2.8303,2.8319,2.833,2.8331,2.8336,2.8325,2.8349,2.8385,2.839,2.834,2.8339,2.8339,0,2.8045,2.8084,2.8113,2.8125,2.8158,2.8171,2.8186,2.821,2.8226,2.8251,2.8262,2.8289,2.8305,2.8327,2.8343,2.8334,2.8383,2.8374,2.8393,2.8393,2.8403,2.8403,2.8444,2.841,2.841,2.841,2.841,0,2.807,2.8094,2.8119,2.8137,2.8165,2.818,2.8208,2.8223,2.8245,2.8268,2.8277,2.8298,2.8317,2.8342,2.8355,2.8389,2.8395,2.8404,2.8408,2.8404,2.8404,2.8415,2.8414,2.8412,2.8411,2.8411,2.8411,0,2.8086,2.8103,2.8136,2.8165,2.8173,2.8193,2.8219,2.8238,2.8253,2.8282,2.8289,2.8313,2.8343,2.8361,2.8399,2.8408,2.8445,2.8447,2.8437,2.8439,2.8457,2.8456,2.8509,2.8518,2.8477,2.8477,2.8477,0,2.8101,2.812,2.8152,2.8168,2.8183,2.8208,2.8226,2.8243,2.8261,2.8292,2.8309,2.8339,2.8365,2.8413,2.8434,2.8464,2.8468,2.8485,2.8472,2.847,2.8471,2.847,2.8474,2.8487,2.8487,2.8487,2.8488,0,2.8128,2.8137,2.8161,2.819,2.8211,2.8234,2.8257,2.827,2.8291,2.8312,2.8343,2.8363,2.8403,2.8434,2.8467,2.8484,2.8491,2.8491,2.8498,2.8495,2.849,2.8495,2.8445,2.849,2.849,2.849,2.8489,2.8489,2.8146,2.8164,2.8191,2.8219,2.8238,2.8261,2.8281,2.83,2.8326,2.8359,2.8368,2.8402,2.843,2.8474,2.8492,2.852,2.8518,2.8526,2.8529,2.8531,2.8533,2.8484,2.8526,2.8526,2.8526,2.8526,2.8526,0,2.8175,2.8193,2.8219,2.8252,2.8275,2.8279,2.8306,2.8326,2.8355,2.838,2.8406,2.8444,2.8475,2.85,2.8533,2.8551,2.8555,2.8559,2.8559,2.8564,2.8531,2.8524,2.8556,2.8556,2.8556,2.8556,2.8556,2.8556,2.8193,2.8225,2.8238,2.8281,2.83,2.8332,2.8348,2.837,2.8391,2.8432,2.8459,2.8475,2.8502,2.8537,2.8568,2.8574,2.8587,2.8591,2.8599,2.8568,2.8565,2.8562,2.8555,2.8593,2.8593,2.8629,2.8629,2.863]}]]